CW3560 Weather Reports


time (UTC)temp
C
wind
direction
speed
KPH
gust
KPH
rain 1hr
cm
rain 24hr
cm
rain mn
cm
humidity
%
barometer
mb
20260507213037 13 221 4.8 17.7 0.00 0.00 0.00 33 1005.0
20260507211536 14 308 4.8 17.7 0.00 0.00 0.00 33 1004.8
20260507210039 14 266 4.8 16.1 0.00 0.00 0.00 33 1005.0
20260507204535 14 211 0.0 20.9 0.00 0.00 0.00 33 1004.9
20260507203104 13 182 4.8 19.3 0.00 0.00 0.00 33 1004.9
20260507201534 14 252 3.2 14.5 0.00 0.00 0.00 33 1004.9
20260507200034 14 116 0.0 19.3 0.00 0.00 0.00 34 1004.9
20260507194534 15 194 1.6 17.7 0.00 0.00 0.00 33 1004.9
20260507193030 14 271 6.4 16.1 0.00 0.00 0.00 33 1005.0
20260507191532 14 175 3.2 16.1 0.00 0.00 0.00 34 1005.2
20260507190025 13 282 4.8 22.5 0.00 0.00 0.00 34 1005.4
20260507184525 14 228 3.2 14.5 0.00 0.00 0.00 34 1005.5
20260507183025 13 280 3.2 19.3 0.00 0.00 0.00 34 1005.5
20260507181522 13 192 4.8 12.9 0.00 0.00 0.00 33 1005.6
20260507180024 14 180 1.6 17.7 0.00 0.00 0.00 34 1005.7
20260507174523 12 216 3.2 17.7 0.00 0.00 0.00 34 1005.7
20260507173039 12 173 1.6 12.9 0.00 0.00 0.00 34 1005.9
20260507171523 12 243 6.4 16.1 0.00 0.00 0.00 34 1006.1
20260507170015 12 236 1.6 17.7 0.00 0.00 0.00 34 1006.3
20260507164517 12 244 4.8 22.5 0.00 0.00 0.00 35 1006.5
20260507163011 12 257 3.2 22.5 0.00 0.00 0.00 34 1006.6
20260507161512 12 325 4.8 19.3 0.00 0.00 0.00 35 1006.7
20260507160011 12 216 6.4 17.7 0.00 0.00 0.00 35 1006.8
20260507154508 12 215 4.8 16.1 0.00 0.00 0.00 35 1007.0
20260507153006 12 311 4.8 12.9 0.00 0.00 0.00 35 1006.9
20260507151501 11 225 4.8 17.7 0.00 0.00 0.00 35 1007.1
20260507150101 11 252 1.6 8.0 0.00 0.00 0.00 36 1007.1
20260507144617 11 61 3.2 14.5 0.00 0.00 0.00 36 1007.0
20260507143102 10 225 0.0 14.5 0.00 0.00 0.00 37 1007.0
20260507141601 10 307 0.0 6.4 0.00 0.00 0.00 37 1007.0
20260507140053 10 229 1.6 6.4 0.00 0.00 0.00 37 1006.9
20260507134555 10 271 3.2 9.7 0.00 0.00 0.00 37 1006.9
20260507133134 9 240 1.6 6.4 0.00 0.00 0.00 37 1007.0
20260507131550 10 252 4.8 12.9 0.00 0.00 0.00 37 1007.2
20260507130100 10 169 0.0 12.9 0.00 0.00 0.00 38 1007.4
20260507124549 9 263 4.8 16.1 0.00 0.00 0.00 38 1007.2
20260507123048 8 244 1.6 12.9 0.00 0.00 0.00 38 1007.0
20260507121542 8 300 0.0 6.4 0.00 0.00 0.00 38 1007.0
20260507120039 7 244 3.2 11.3 0.00 0.00 0.00 39 1007.2
20260507114550 7 232 1.6 8.0 0.00 0.00 0.00 39 1007.2
20260507113039 6 186 0.0 9.7 0.00 0.00 0.00 39 1007.1
20260507111534 6 119 0.0 3.2 0.00 0.00 0.00 40 1007.1
20260507110040 6 111 0.0 4.8 0.00 0.00 0.00 40 1007.1
20260507104532 5 289 0.0 3.2 0.00 0.00 0.00 40 1006.9
20260507103038 4 288 0.0 0.0 0.00 0.00 0.00 40 1006.9
20260507101535 5 288 0.0 1.6 0.00 0.00 0.00 40 1006.8
20260507100026 5 248 0.0 3.2 0.00 0.00 0.00 39 1006.8
20260507094526 5 248 0.0 3.2 0.00 0.00 0.00 39 1006.9
20260507093023 5 204 0.0 3.2 0.00 0.00 0.00 39 1006.9
20260507091525 6 203 0.0 4.8 0.00 0.00 0.00 39 1007.1
20260507090018 6 234 1.6 11.3 0.00 0.00 0.00 39 1006.7
20260507084520 6 236 1.6 6.4 0.00 0.00 0.00 39 1006.8
20260507083017 6 168 0.0 6.4 0.00 0.00 0.00 39 1006.8
20260507081516 6 215 3.2 11.3 0.00 0.00 0.00 39 1006.4
20260507080014 6 226 0.0 6.4 0.00 0.00 0.00 39 1006.8
20260507074511 6 272 1.6 6.4 0.00 0.00 0.00 39 1006.6
20260507073010 6 300 0.0 3.2 0.00 0.00 0.00 39 1006.7
20260507071512 6 175 0.0 12.9 0.00 0.00 0.00 39 1006.2
20260507070012 7 227 0.0 4.8 0.00 0.00 0.00 39 1005.8
20260507064510 7 226 3.2 14.5 0.00 0.00 0.00 39 1006.2
20260507063007 7 178 0.0 8.0 0.00 0.00 0.00 39 1006.0
20260507061503 7 245 1.6 9.7 0.00 0.00 0.00 39 1006.3
20260507060002 7 248 1.6 11.3 0.00 0.00 0.00 39 1005.9
20260507054500 7 161 3.2 12.9 0.00 0.00 0.00 39 1006.3
20260507053125 7 142 3.2 19.3 0.00 0.00 0.00 39 1006.1
20260507051556 7 246 1.6 16.1 0.00 0.00 0.00 39 1005.7
20260507050054 7 252 3.2 12.9 0.00 0.00 0.00 39 1006.0
20260507044608 7 173 3.2 11.3 0.00 0.00 0.00 39 1006.0
20260507043052 7 200 0.0 6.4 0.00 0.00 0.00 39 1006.2
20260507041553 7 161 0.0 8.0 0.00 0.00 0.00 39 1006.1
20260507040048 7 225 0.0 14.5 0.00 0.00 0.00 39 1005.9
20260507034547 7 198 4.8 14.5 0.00 0.00 0.00 39 1006.1
20260507033059 8 198 1.6 9.7 0.00 0.00 0.00 39 1005.9
20260507031556 8 199 1.6 11.3 0.00 0.00 0.00 39 1005.9
20260507024602 8 209 3.2 17.7 0.00 0.00 0.00 39 1005.9
20260507023041 8 271 4.8 20.9 0.00 0.00 0.00 39 1005.7
20260507021547 8 236 6.4 20.9 0.00 0.00 0.00 39 1005.7
20260507020051 9 233 8.0 19.3 0.00 0.00 0.00 39 1005.4
20260507014542 10 201 3.2 17.7 0.00 0.00 0.00 39 1005.1
20260507013038 10 255 1.6 17.7 0.00 0.00 0.00 40 1005.0
20260507011534 11 237 1.6 16.1 0.00 0.00 0.00 40 1004.7
20260507010035 11 261 1.6 6.4 0.00 0.00 0.00 40 1004.7
20260507004528 12 259 1.6 8.0 0.00 0.00 0.00 40 1004.4
20260507003028 12 306 0.0 12.9 0.00 0.00 0.00 40 1004.0
20260507001533 13 47 1.6 9.7 0.00 0.00 0.00 40 1003.8
20260507000027 14 350 4.8 12.9 0.00 0.00 0.00 40 1003.5
20260506234526 15 162 0.0 3.2 0.00 0.00 0.00 40 1003.0
20260506233026 15 164 0.0 3.2 0.00 0.00 0.00 40 1003.0
20260506231525 15 163 0.0 1.6 0.00 0.00 0.00 40 1003.0
20260506230024 15 162 0.0 9.7 0.00 0.00 0.00 40 1002.9
20260506224526 15 22 1.6 9.7 0.00 0.00 0.00 40 1002.8
20260506223024 15 190 1.6 9.7 0.00 0.00 0.00 40 1003.0
20260506221523 15 46 1.6 8.0 0.00 0.00 0.00 40 1002.8
20260506220021 15 74 1.6 9.7 0.00 0.00 0.00 40 1002.9
20260506214521 15 61 1.6 9.7 0.00 0.00 0.00 40 1002.9